Volver al catálogo

MARS ORBITER MISSION

ActivoCienciaHCO
NORAD 39370·PAYLOAD·🇮🇳 India

Lanzado Nov 5, 2013 desde Satish Dhawan Space Centre

Loading…

TLE

ObsoletoSource: Space-Track

Época: Nov 15, 2013, 20:28 UTC

1 39370U 13060A   13319.85296673 -.00001668  00000-0  00000+0 0  9996
2 39370 019.4167 122.9551 9306301 288.8779 002.1288 00.25833433   156

Sigue MARS ORBITER MISSION en tiempo real con AllMySat

Download on the App Store